DW6193 Weather Reports


Display with metric or nautical units.
time (UTC)temp
F
wind
direction
speed
MPH
gust
MPH
rain 1hr
in
rain 24hr
in
rain mn
in
humidity
%
barometer
mb
20200222072630 43 110 1.0 3.0 0.00 0.00 0.00 1022.5
20200222071643 44 110 0.0 4.0 0.00 0.00 0.00 1022.4
20200222070632 44 110 1.0 3.0 0.00 0.00 0.00 1022.3
20200222065640 43 110 1.0 2.0 0.00 0.00 0.00 1022.5
20200222063643 43 110 1.0 3.0 0.00 0.00 0.00 1022.5
20200222062631 44 110 0.0 2.0 0.00 0.00 0.00 1022.6
20200222061640 45 110 0.0 2.0 0.00 0.00 0.00 1022.4
20200222060632 44 110 1.0 2.0 0.00 0.00 0.00 1022.4
20200222055640 45 110 1.0 2.0 0.00 0.00 0.00 1022.3
20200222054631 45 110 1.0 3.0 0.00 0.00 0.00 1022.4
20200222053640 46 110 2.0 3.0 0.00 0.00 0.00 1022.5
20200222052631 46 110 1.0 4.0 0.00 0.00 0.00 1022.4
20200222051640 46 110 4.0 5.0 0.00 0.00 0.00 1022.3
20200222050629 47 110 2.0 4.0 0.00 0.00 0.00 1022.2
20200222045637 47 110 3.0 5.0 0.00 0.00 0.00 1022.2
20200222044630 47 110 4.0 5.0 0.00 0.00 0.00 1022.1
20200222043639 47 110 1.0 2.0 0.00 0.00 0.00 1022.0
20200222042627 48 110 1.0 3.0 0.00 0.00 0.00 1021.8
20200222041637 49 110 0.0 1.0 0.00 0.00 0.00 1021.7
20200222040630 49 110 1.0 3.0 0.00 0.00 0.00 1021.7
20200222035638 50 110 2.0 2.0 0.00 0.00 0.00 1021.7
20200222034626 49 110 1.0 2.0 0.00 0.00 0.00 1021.6
20200222033638 50 110 1.0 2.0 0.00 0.00 0.00 1021.7
20200222032626 50 110 1.0 2.0 0.00 0.00 0.00 1021.7
20200222031635 50 110 1.0 2.0 0.00 0.00 0.00 1021.8
20200222030644 50 110 1.0 2.0 0.00 0.00 0.00 1021.9
20200222025636 50 110 1.0 2.0 0.00 0.00 0.00 1021.8
20200222024626 50 110 1.0 2.0 0.00 0.00 0.00 1021.7
20200222023634 50 110 1.0 2.0 0.00 0.00 0.00 1021.6
20200222022642 51 110 1.0 2.0 0.00 0.00 0.00 1021.4
20200222021634 51 110 2.0 3.0 0.00 0.00 0.00 1021.4
20200222020643 51 110 2.0 3.0 0.00 0.00 0.00 1021.3
20200222015630 52 110 2.0 3.0 0.00 0.00 0.00 1021.3
20200222014639 53 110 1.0 2.0 0.00 0.00 0.00 1021.3
20200222013632 53 110 1.0 2.0 0.00 0.00 0.00 1021.3
20200222012640 55 110 0.0 3.0 0.00 0.00 0.00 1021.4
20200222011629 56 110 3.0 5.0 0.00 0.00 0.00 1021.4
20200222010641 58 110 3.0 4.0 0.00 0.00 0.00 1021.3
20200222005628 57 110 3.0 4.0 0.00 0.00 0.00 1021.3
20200222004637 60 110 1.0 3.0 0.00 0.00 0.00 1021.4
20200222003625 64 110 0.0 1.0 0.00 0.00 0.00 1021.5
20200222002637 67 110 0.0 3.0 0.00 0.00 0.00 1021.5
20200222001627 72 110 0.0 2.0 0.00 0.00 0.00 1021.7
20200222000638 72 110 1.0 3.0 0.00 0.00 0.00 1021.7
20200221235642 69 110 1.0 3.0 0.00 0.00 0.00 1021.7
20200221234635 74 110 0.0 3.0 0.00 0.00 0.00 1021.8
20200221233645 77 110 3.0 6.0 0.00 0.00 0.00 1021.8
20200221232632 74 110 5.0 7.0 0.00 0.00 0.00 1021.9
20200221231625 73 110 5.0 10.0 0.00 0.00 0.00 1021.9
20200221230635 70 110 7.0 10.0 0.00 0.00 0.00 1021.9
20200221225643 69 110 7.0 11.0 0.00 0.00 0.00 1022.0
20200221224631 66 110 10.0 13.0 0.00 0.00 0.00 1021.9
20200221223644 65 110 11.0 15.0 0.00 0.00 0.00 1021.9
20200221222632 66 110 11.0 14.0 0.00 0.00 0.00 1022.0
20200221221641 63 110 12.0 17.0 0.00 0.00 0.00 1022.1
20200221220631 62 110 13.0 19.0 0.00 0.00 0.00 1022.4
20200221215642 62 110 13.0 17.0 0.00 0.00 0.00 1022.5
20200221214631 60 110 12.0 25.0 0.00 0.00 0.00 1022.6
20200221213640 60 110 14.0 28.0 0.00 0.00 0.00 1022.7
20200221212629 58 110 17.0 29.0 0.00 0.00 0.00 1022.7
20200221211641 57 110 17.0 26.0 0.00 0.00 0.00 1022.8
20200221210629 56 110 17.0 28.0 0.00 0.00 0.00 1022.9
20200221205637 57 110 18.0 26.0 0.00 0.00 0.00 1023.2
20200221204630 57 110 15.0 30.0 0.00 0.00 0.00 1023.2
20200221203639 55 110 19.0 29.0 0.00 0.00 0.00 1023.4
20200221202627 55 110 18.0 31.0 0.00 0.00 0.00 1023.4
20200221201636 54 110 19.0 33.0 0.00 0.00 0.00 1023.5
20200221200629 53 110 17.0 32.0 0.00 0.00 0.00 1023.6
20200221195637 52 110 25.0 40.0 0.00 0.00 0.00 1023.8
20200221193644 50 110 24.0 38.0 0.00 0.00 0.00 1023.7
20200221192636 49 110 24.0 36.0 0.00 0.00 0.00 1023.7
20200221191625 48 110 24.0 37.0 0.00 0.00 0.00 1023.9
20200221190636 47 110 25.0 40.0 0.00 0.00 0.00 1023.9
20200221185627 47 110 25.0 42.0 0.00 0.00 0.00 1023.8
20200221184637 46 110 29.0 42.0 0.00 0.00 0.00 1024.0
20200221183625 46 110 24.0 37.0 0.00 0.00 0.00 1024.4
20200221182633 45 110 22.0 43.0 0.00 0.00 0.00 1024.2
20200221181626 45 110 27.0 43.0 0.00 0.00 0.00 1024.4
20200221180636 44 110 28.0 45.0 0.00 0.00 0.00 1024.4
20200221175643 43 110 28.0 43.0 0.00 0.00 0.00 1024.2
20200221174632 42 110 29.0 44.0 0.00 0.00 0.00 1024.1
20200221173625 42 110 26.0 44.0 0.00 0.00 0.00 1024.1
20200221172634 41 110 30.0 45.0 0.00 0.00 0.00 1024.4
20200221171642 41 110 25.0 41.0 0.00 0.00 0.00 1024.3
20200221170631 40 110 29.0 46.0 0.00 0.00 0.00 1024.2
20200221165643 40 110 28.0 44.0 0.00 0.00 0.00 1024.2
20200221164631 39 110 26.0 45.0 0.00 0.00 0.00 1024.2
20200221163641 39 110 26.0 42.0 0.00 0.00 0.00 1024.2
20200221162633 38 110 25.0 46.0 0.00 0.00 0.00 1024.5
20200221161641 37 110 34.0 45.0 0.00 0.00 0.00 1024.3
20200221160630 37 110 29.0 45.0 0.00 0.00 0.00 1024.6
20200221155639 37 110 23.0 37.0 0.00 0.00 0.00 1024.3
20200221154632 36 110 30.0 50.0 0.00 0.00 0.00 1024.2
20200221153641 36 110 27.0 45.0 0.00 0.00 0.00 1024.2
20200221152629 34 110 31.0 41.0 0.00 0.00 0.00 1024.2
20200221151637 34 110 25.0 45.0 0.00 0.00 0.00 1024.1
20200221150631 34 110 28.0 43.0 0.00 0.00 0.00 1024.0
20200221145639 34 110 27.0 44.0 0.00 0.00 0.00 1023.9
20200221144631 34 110 19.0 38.0 0.00 0.00 0.00 1024.1
20200221143634 34 110 30.0 42.0 0.00 0.00 0.00 1024.1
20200221142626 34 110 28.0 44.0 0.00 0.00 0.00 1024.0
20200221141634 34 110 22.0 39.0 0.00 0.00 0.00 1024.1
20200221140643 34 110 23.0 47.0 0.00 0.00 0.00 1024.3
20200221135635 34 110 31.0 47.0 0.00 0.00 0.00 1024.1
20200221134643 35 110 32.0 45.0 0.00 0.00 0.00 1024.3
20200221133632 35 110 27.0 43.0 0.00 0.00 0.00 1024.4
20200221132640 35 110 31.0 48.0 0.00 0.00 0.00 1024.4
20200221131633 35 110 26.0 40.0 0.00 0.00 0.00 1024.3
20200221130641 35 110 28.0 47.0 0.00 0.00 0.00 1024.4
20200221125639 35 110 27.0 42.0 0.00 0.00 0.00 1024.1
20200221124628 35 110 27.0 43.0 0.00 0.00 0.00 1024.0
20200221123641 35 110 26.0 44.0 0.00 0.00 0.00 1024.3
20200221122629 36 110 22.0 43.0 0.00 0.00 0.00 1024.0
20200221121638 36 110 23.0 45.0 0.00 0.00 0.00 1024.0
20200221120626 36 110 24.0 43.0 0.00 0.00 0.00 1024.1
20200221115638 36 110 22.0 43.0 0.00 0.00 0.00 1024.3
20200221114627 36 110 27.0 43.0 0.00 0.00 0.00 1024.1
20200221113637 36 110 27.0 40.0 0.00 0.00 0.00 1024.3
20200221112629 36 110 24.0 44.0 0.00 0.00 0.00 1024.3
20200221111638 36 110 25.0 46.0 0.00 0.00 0.00 1024.5
20200221110627 36 110 28.0 42.0 0.00 0.00 0.00 1024.8
20200221105634 36 110 25.0 44.0 0.00 0.00 0.00 1024.7
20200221104627 36 110 25.0 40.0 0.00 0.00 0.00 1024.6
20200221103636 36 110 26.0 43.0 0.00 0.00 0.00 1024.7
20200221102644 36 110 23.0 38.0 0.00 0.00 0.00 1024.6
20200221101634 37 110 27.0 47.0 0.00 0.00 0.00 1024.5
20200221100627 37 110 22.0 40.0 0.00 0.00 0.00 1024.6
20200221095636 37 110 26.0 38.0 0.00 0.00 0.00 1024.7
20200221094626 37 110 25.0 42.0 0.00 0.00 0.00 1024.6
20200221093636 37 110 23.0 41.0 0.00 0.00 0.00 1024.5
20200221092629 38 110 24.0 41.0 0.00 0.00 0.00 1024.6
20200221090629 38 110 24.0 43.0 0.00 0.00 0.00 1024.8
20200221085642 38 110 25.0 41.0 0.00 0.00 0.00 1024.9
20200221084631 38 110 27.0 49.0 0.00 0.00 0.00 1025.1
20200221083640 38 110 22.0 40.0 0.00 0.00 0.00 1025.0
20200221082629 39 110 22.0 39.0 0.00 0.00 0.00 1025.0
20200221081642 39 110 25.0 40.0 0.00 0.00 0.00 1025.0
20200221080631 39 110 24.0 39.0 0.00 0.00 0.00 1025.0
20200221075636 39 110 21.0 38.0 0.00 0.00 0.00 1024.9
20200221074625 40 110 21.0 34.0 0.00 0.00 0.00 1025.1
20200221073639 40 110 22.0 43.0 0.00 0.00 0.00 1024.9